| time (UTC) | temp F | wind direction | speed MPH | gust MPH | rain 1hr in | rain 24hr in | rain mn in | humidity % | barometer mb |
| 20260505204504 | 85 | 168 | 3.0 | 3.0 | 0.00 | 0.00 | 0.00 | 88 | 1009.0 |
| 20260505203004 | 85 | 180 | 3.0 | 3.0 | 0.00 | 0.00 | 0.00 | 88 | 1009.0 |
| 20260505201505 | 85 | 180 | 3.0 | 3.0 | 0.00 | 0.00 | 0.00 | 89 | 1009.0 |
| 20260505200005 | 85 | 180 | 3.0 | 3.0 | 0.00 | 0.00 | 0.00 | 88 | 1009.0 |
| 20260505194504 | 85 | 180 | 3.0 | 3.0 | 0.00 | 0.00 | 0.00 | 88 | 1009.0 |
| 20260505193005 | 85 | 180 | 3.0 | 3.0 | 0.00 | 0.00 | 0.00 | 88 | 1009.0 |
| 20260505191504 | 85 | 182 | 3.0 | 3.0 | 0.00 | 0.00 | 0.00 | 88 | 1009.0 |
| 20260505190005 | 85 | 182 | 3.0 | 3.0 | 0.00 | 0.00 | 0.00 | 88 | 1009.0 |
| 20260505184559 | 85 | 182 | 3.0 | 3.0 | 0.00 | 0.00 | 0.00 | 88 | 1009.0 |
| 20260505183100 | 85 | 182 | 3.0 | 3.0 | 0.00 | 0.00 | 0.00 | 88 | 1009.0 |
| 20260505181559 | 85 | 185 | 4.0 | 3.0 | 0.00 | 0.00 | 0.00 | 88 | 1010.0 |
| 20260505180100 | 85 | 185 | 4.0 | 3.0 | 0.00 | 0.00 | 0.00 | 88 | 1010.0 |
| 20260505174559 | 85 | 185 | 4.0 | 3.0 | 0.00 | 0.00 | 0.00 | 88 | 1010.0 |
| 20260505173059 | 85 | 190 | 4.0 | 3.0 | 0.00 | 0.00 | 0.00 | 87 | 1010.0 |
| 20260505171559 | 86 | 177 | 3.0 | 2.0 | 0.00 | 0.00 | 0.00 | 88 | 1010.0 |
| 20260505164600 | 86 | 177 | 3.0 | 2.0 | 0.00 | 0.00 | 0.00 | 87 | 1010.0 |
| 20260505163101 | 86 | 177 | 3.0 | 2.0 | 0.00 | 0.00 | 0.00 | 86 | 1010.0 |
| 20260505161600 | 86 | 158 | 2.0 | 3.0 | 0.00 | 0.00 | 0.00 | 88 | 1011.0 |
| 20260505160106 | 86 | 158 | 2.0 | 3.0 | 0.00 | 0.00 | 0.00 | 86 | 1011.0 |
| 20260505153103 | 86 | 158 | 2.0 | 3.0 | 0.01 | 0.00 | 0.00 | 86 | 1011.0 |
| 20260505151600 | 86 | 130 | 3.0 | 4.0 | 0.00 | 0.00 | 0.00 | 88 | 1011.0 |
| 20260505150108 | 86 | 130 | 3.0 | 4.0 | 0.00 | 0.00 | 0.00 | 87 | 1011.0 |
| 20260505140106 | 86 | 115 | 4.0 | 5.0 | 0.00 | 0.00 | 0.00 | 87 | 1011.0 |
| 20260505130109 | 86 | 109 | 4.0 | 5.0 | 0.00 | 0.00 | 0.00 | 86 | 1010.0 |
| 20260505124602 | 86 | 109 | 4.0 | 5.0 | 0.00 | 0.00 | 0.00 | 86 | 1010.0 |
| 20260505123105 | 86 | 100 | 5.0 | 6.0 | 0.00 | 0.00 | 0.00 | 85 | 1010.0 |
| 20260505121602 | 86 | 100 | 5.0 | 6.0 | 0.00 | 0.00 | 0.00 | 85 | 1009.0 |
| 20260505120112 | 86 | 100 | 5.0 | 6.0 | 0.00 | 0.00 | 0.00 | 85 | 1009.0 |
| 20260505114606 | 86 | 100 | 5.0 | 6.0 | 0.00 | 0.00 | 0.00 | 85 | 1009.0 |
| 20260505113115 | 86 | 100 | 5.0 | 6.0 | 0.00 | 0.00 | 0.00 | 85 | 1009.0 |
| 20260505111606 | 87 | 73 | 4.0 | 4.0 | 0.00 | 0.00 | 0.00 | 84 | 1008.0 |
| 20260505110116 | 87 | 73 | 4.0 | 4.0 | 0.00 | 0.00 | 0.00 | 84 | 1008.0 |
| 20260505101605 | 88 | 39 | 4.0 | 5.0 | 0.00 | 0.00 | 0.00 | 79 | 1008.0 |
| 20260505100113 | 88 | 39 | 4.0 | 5.0 | 0.00 | 0.00 | 0.00 | 79 | 1008.0 |
| 20260505094606 | 88 | 39 | 4.0 | 5.0 | 0.00 | 0.00 | 0.00 | 79 | 1008.0 |
| 20260505093109 | 89 | 47 | 6.0 | 6.0 | 0.00 | 0.00 | 0.00 | 75 | 1008.0 |
| 20260505091604 | 89 | 47 | 6.0 | 6.0 | 0.00 | 0.00 | 0.00 | 75 | 1008.0 |
| 20260505090130 | 89 | 47 | 6.0 | 6.0 | 0.00 | 0.00 | 0.00 | 75 | 1008.0 |
| 20260505084606 | 89 | 47 | 6.0 | 6.0 | 0.00 | 0.00 | 0.00 | 75 | 1008.0 |
| 20260505083111 | 89 | 47 | 6.0 | 6.0 | 0.00 | 0.00 | 0.00 | 75 | 1008.0 |
| 20260505081608 | 89 | 47 | 6.0 | 6.0 | 0.00 | 0.00 | 0.00 | 75 | 1008.0 |
| 20260505080131 | 89 | 47 | 6.0 | 6.0 | 0.00 | 0.00 | 0.00 | 75 | 1008.0 |
| 20260505074608 | 89 | 47 | 6.0 | 6.0 | 0.00 | 0.00 | 0.00 | 75 | 1008.0 |
| 20260505073117 | 90 | 47 | 6.0 | 6.0 | 0.00 | 0.00 | 0.00 | 75 | 1008.0 |
| 20260505071607 | 90 | 47 | 6.0 | 6.0 | 0.00 | 0.00 | 0.00 | 75 | 1008.0 |
| 20260505070129 | 90 | 47 | 6.0 | 6.0 | 0.00 | 0.00 | 0.00 | 75 | 1008.0 |
| 20260505064605 | 90 | 47 | 6.0 | 6.0 | 0.00 | 0.00 | 0.00 | 75 | 1008.0 |
| 20260505063114 | 90 | 47 | 6.0 | 6.0 | 0.00 | 0.00 | 0.00 | 75 | 1008.0 |
| 20260505061607 | 90 | 47 | 6.0 | 6.0 | 0.00 | 0.00 | 0.00 | 75 | 1009.0 |
| 20260505060128 | 90 | 47 | 6.0 | 6.0 | 0.00 | 0.00 | 0.00 | 75 | 1009.0 |
| 20260505054607 | 90 | 47 | 6.0 | 6.0 | 0.00 | 0.00 | 0.00 | 75 | 1009.0 |
| 20260505053109 | 90 | 47 | 6.0 | 6.0 | 0.00 | 0.00 | 0.00 | 75 | 1009.0 |
| 20260505051604 | 90 | 47 | 6.0 | 6.0 | 0.00 | 0.00 | 0.00 | 75 | 1009.0 |
| 20260505050117 | 90 | 47 | 6.0 | 6.0 | 0.00 | 0.00 | 0.00 | 75 | 1009.0 |
| 20260505041555 | 90 | 47 | 6.0 | 6.0 | 0.00 | 0.00 | 0.00 | 78 | 1010.0 |
| 20260505040057 | 89 | 47 | 6.0 | 6.0 | 0.00 | 0.00 | 0.00 | 74 | 1010.0 |
| 20260505034555 | 89 | 47 | 6.0 | 6.0 | 0.00 | 0.00 | 0.00 | 76 | 1010.0 |
| 20260505033056 | 89 | 47 | 6.0 | 6.0 | 0.00 | 0.00 | 0.00 | 74 | 1010.0 |
| 20260505031555 | 89 | 56 | 5.0 | 6.0 | 0.00 | 0.00 | 0.00 | 79 | 1011.0 |
| 20260505030100 | 89 | 56 | 5.0 | 6.0 | 0.00 | 0.00 | 0.00 | 76 | 1011.0 |
| 20260505024554 | 88 | 56 | 5.0 | 6.0 | 0.00 | 0.00 | 0.00 | 78 | 1011.0 |
| 20260505023056 | 88 | 56 | 5.0 | 6.0 | 0.00 | 0.00 | 0.00 | 76 | 1011.0 |
| 20260505021555 | 88 | 72 | 5.0 | 6.0 | 0.00 | 0.00 | 0.00 | 80 | 1011.0 |
| 20260505020059 | 88 | 72 | 5.0 | 6.0 | 0.00 | 0.00 | 0.00 | 78 | 1011.0 |
| 20260505014555 | 88 | 72 | 5.0 | 6.0 | 0.00 | 0.00 | 0.00 | 80 | 1011.0 |
| 20260505013055 | 88 | 72 | 5.0 | 6.0 | 0.01 | 0.00 | 0.00 | 79 | 1011.0 |
| 20260505011554 | 88 | 76 | 4.0 | 6.0 | 0.00 | 0.00 | 0.00 | 83 | 1011.0 |
| 20260505010057 | 87 | 76 | 4.0 | 6.0 | 0.00 | 0.00 | 0.00 | 81 | 1011.0 |
| 20260505004555 | 87 | 76 | 4.0 | 6.0 | 0.00 | 0.00 | 0.00 | 83 | 1011.0 |
| 20260505003055 | 86 | 76 | 4.0 | 6.0 | 0.01 | 0.00 | 0.00 | 82 | 1011.0 |
| 20260505001555 | 85 | 112 | 3.0 | 4.0 | 0.00 | 0.00 | 0.00 | 85 | 1010.0 |
| 20260505000057 | 85 | 112 | 3.0 | 4.0 | 0.00 | 0.00 | 0.00 | 85 | 1010.0 |
| 20260504234554 | 85 | 112 | 3.0 | 4.0 | 0.00 | 0.00 | 0.00 | 86 | 1010.0 |
| 20260504233055 | 85 | 112 | 3.0 | 4.0 | 0.00 | 0.00 | 0.00 | 85 | 1010.0 |
| 20260504231554 | 85 | 135 | 4.0 | 4.0 | 0.00 | 0.00 | 0.00 | 88 | 1009.0 |
| 20260504230056 | 85 | 135 | 4.0 | 4.0 | 0.00 | 0.00 | 0.00 | 87 | 1009.0 |
| 20260504224554 | 85 | 135 | 4.0 | 4.0 | 0.00 | 0.00 | 0.00 | 87 | 1009.0 |
| 20260504223055 | 85 | 135 | 4.0 | 4.0 | 0.00 | 0.00 | 0.00 | 87 | 1009.0 |
| 20260504221555 | 84 | 132 | 4.0 | 3.0 | 0.00 | 0.00 | 0.00 | 88 | 1009.0 |
| 20260504220057 | 84 | 132 | 4.0 | 3.0 | 0.00 | 0.00 | 0.00 | 87 | 1009.0 |
| 20260504214554 | 84 | 132 | 4.0 | 3.0 | 0.00 | 0.00 | 0.00 | 87 | 1009.0 |
| 20260504213055 | 84 | 132 | 4.0 | 3.0 | 0.00 | 0.00 | 0.00 | 87 | 1009.0 |
| 20260504211554 | 85 | 124 | 4.0 | 4.0 | 0.00 | 0.00 | 0.00 | 88 | 1009.0 |
| 20260504210056 | 85 | 124 | 4.0 | 4.0 | 0.00 | 0.00 | 0.00 | 87 | 1009.0 |